Regional Weather Roundup
Issued by NWS Wakefield, VA

Home | Current Version | Previous Version | Text Only | Print | Product List | Glossary Off
Versions: 1 2 3 4 5 6 7 8 9 10 11 12 13 14 15 16 17 18 19 20 21 22 23 24 25 26 27 28 29 30 31 32 33 34 35 36 37 38 39 40 41 42 43 44 45 46 47 48 49 50

000
ASUS41 KAKQ 270215
RWRAKQ

REGIONAL WEATHER ROUNDUP
NATIONAL WEATHER SERVICE WAKEFIELD VA
1000 PM EDT WED AUG 26 2015

Note: "fair" indicates few or no clouds below 12,000 feet with no
significant weather and/or obstructions to visibility. * = Denotes
station may not report precipitation (e.g., rain,snow,etc.),
thunder or fog.

VAZ042-051-052>054-056-270300-
NORTHERN VIRGINIA

CITY           SKY/WX    TMP DP  RH WIND       PRES   REMARKS
WASH NATIONAL  CLEAR     72  54  53 N6        30.06R
DULLES         PTCLDY    64  54  69 W5        30.07R
FORT BELVOIR   CLEAR     62  58  87 CALM      30.06R
QUANTICO       CLEAR     67  62  84 NW8       30.07R
FREDERICKSBRG* CLEAR     68  62  80 CALM      30.06R
STAFFORD*      CLEAR     60  58  93 CALM      30.10R
WARRENTON      CLEAR     58  57  95 CALM      30.07R
CULPEPER*      CLEAR     61  60  94 N5        30.08R
MANASSAS*      CLEAR     63  61  94 CALM      30.07R
LEESBURG*      CLEAR     68  59  73 NW3       30.08S
WINCHESTER     CLEAR     63  52  67 CALM      30.09R
FRONT ROYAL*   CLOUDY    64  54  68 CALM      30.09R
LURAY*         CLOUDY    68  50  52 CALM      30.10R
$$

VAZ048-049-060>072-079>083-270300-
CENTRAL AND SOUTH CENTRAL VIRGINIA

CITY           SKY/WX    TMP DP  RH WIND       PRES   REMARKS
RICHMOND       CLOUDY    72  60  66 NE5       30.05R
CHESTERFIELD*  MOCLDY    73  52  46 NE5       30.07R
PETERSBURG*    LGT RAIN  74  66  77 N5        30.05R
HANOVER        PTCLDY    65  61  87 CALM      30.07R
TAPPAHANNOCK*  PTCLDY    64  60  87 CALM      30.06R
QUINTON*       CLOUDY    69  64  83 CALM      30.05R
CHARLOTTSVILLE MOCLDY    70  59  68 N5        30.08R
GORDONSVILLE*  MOCLDY    67  62  83 CALM      30.07R
ORANGE*        PTCLDY    66  61  82 CALM      30.09R
LOUISA*        CLEAR     64  59  82 E3        30.06R
BUMPASS*       FAIR      64  60  87 CALM      30.07R
FARMVILLE*     MOCLDY    70  61  73 N3        30.04R
CREWE*         MOCLDY   N/A N/A N/A CALM      30.05R
FORT PICKETT*  CLOUDY    70  63  79 NE5       30.05R
CHASE CITY*    CLOUDY    74  65  74 CALM      30.04R
CLARKSVILLE*   CLOUDY    72  63  73 CALM      30.03R
SOUTH HILL*    CLOUDY    71  64  79 N5        30.09R
LAWRENCEVILLE* FAIR      72  64  78 CALM      30.04R
EMPORIA*       MOCLDY    70  64  83 NE3       30.04R
$$

VAZ088>098-270300-
SOUTHEAST VIRGINIA

CITY           SKY/WX    TMP DP  RH WIND       PRES   REMARKS
NORFOLK        CLOUDY    77  63  61 NE12      30.02R
VIRGINIA BEACH CLOUDY    77  64  64 N8        30.02R
NORFOLK NAVAL  MOCLDY    77  63  61 NE9       30.04R
WEST POINT*    MOCLDY    71  61  72 CALM      30.06R
SALUDA*        CLOUDY    73  61  65 N6        30.04R
NEWPORT NEWS   CLOUDY    73  62  68 N5        30.04R
LANGLEY AFB    CLOUDY    75  63  64 NE6       30.02R
FORT EUSTIS    MOCLDY    76  62  61 VRB2      30.02R
WILLIAMSBURG*  PTCLDY    75  66  73 CALM      30.05R
HR EXEC AP*      N/A     70  63  78 CALM      30.04R
FRANKLIN*      PTCLDY    71  64  78 NE6       30.03R
WAKEFIELD      CLOUDY    72  66  81 NE3       30.04R
$$

VAZ020-022-025-037-045-270300-
WEST CENTRAL AND SOUTHWEST VIRGINIA

CITY           SKY/WX    TMP DP  RH WIND       PRES   REMARKS
STAUNTON*      CLEAR     68  52  56 N7        30.13R
WAYNESBORO*    CLOUDY    71  52  50 N6        30.11R
HOT SPRINGS VA PTCLDY    56  50  79 NW8       30.18R
LYNCHBURG      CLEAR     65  60  84 CALM      30.08R
DANVILLE       MOCLDY    70  63  78 CALM      30.05R
SOUTH BOSTON*  MOCLDY    68  64  86 CALM      30.04R
MARTINSVILLE   CLOUDY    70  60  70 N5        30.10R
ROANOKE        CLEAR     68  53  58 NW3       30.11R
BLACKSBURG     CLEAR     61  54  79 NW3       30.17R
DUBLIN*        PTCLDY    63  53  69 CALM      30.17R
MARION*        MOCLDY    59  54  83 CALM      30.19R
HILLSVILLE*    CLEAR     60  53  77 N5        30.15R
RICHLANDS*     FAIR      59  51  75 E3        30.18R
WISE*          CLEAR     61  52  72 CALM      30.18R
ABINGDON*      CLEAR     63  51  66 E5        30.15R
$$

MDZ021>025-VAZ099-100-270300-
SOUTHERN MARYLAND AND THE DELMARVA PENINSULA

CITY           SKY/WX    TMP DP  RH WIND       PRES   REMARKS
PATUXENT RIVER PTCLDY    64  61  90 SW5       30.05R
BAY BRIDGE APT   N/A     72  52  49 NW5       30.05R
LEONARDTOWN    PTCLDY    63  59  88 CALM      30.07R
DOVER          CLEAR     69  60  72 W3        30.03R
GEORGETOWN     PTCLDY    67  57  70 S3        30.05R
EASTON         NOT AVBL
CAMBRIDGE      CLEAR     63  57  82 CALM      30.04R
SALISBURY      MOCLDY    69  60  73 CALM      30.04R
OCEAN CITY     CLOUDY    69  61  75 NW3       30.04R
WALLOPS ISLAND MOCLDY    73  58  59 N6        30.04R
ACCOMACK*      CLOUDY    64  63  94 N3        30.04R
$$

NCZ012>017-030>032-270300-
NORTH CENTRAL AND EASTERN NORTH CAROLINA

CITY           SKY/WX    TMP DP  RH WIND       PRES   REMARKS
ROANOKE RAPIDS MOCLDY    70  64  83 NE5       30.02R
RALEIGH        PTCLDY    72  64  76 NE5       30.02R
ELIZABETH CITY CLOUDY    75  69  81 N10       30.00R
AHOSKIE*       PTCLDY    70  66  86 N3        30.02R
EDENTON*       CLOUDY    73  67  83 N7        30.00R
CURRITUCK*     CLOUDY    78  67  69 NE7       30.01R
KILL DEVIL HLS CLOUDY    79  70  74 NE8       29.97R
MANTEO         CLOUDY    78  72  80 NE7       29.98R
CAPE HATTERAS  CLOUDY    79  75  87 NE5       29.97R
TARBORO*       MOCLDY    73  68  84 NE3       30.01R
GOLDSBORO      PTCLDY    73  73  99 SE1       29.99R
WASHINGTON     MOCLDY    73  71  93 CALM      30.00R
GREENVILLE     CLOUDY    77  70  78 CALM      30.01R
NEW BERN       CLOUDY    71  69  93 CALM      30.00R
WILMINGTON     MOCLDY    75  71  87 CALM      29.98R
$$

VAZ048-270300-
ELSEWHERE

CITY           SKY/WX    TMP DP  RH WIND       PRES   REMARKS
HARRISBURG PA  PTCLDY    67  55  65 NW6       30.06R
BALTIMORE      CLEAR     65  57  75 VRB5      30.05R
ANNAPOLIS      CLEAR     69  61  75 CALM      30.05R
ANDREWS AFB    CLEAR     65  54  67 CALM      30.06R
PHILADELPHIA   CLEAR     75  52  44 NW9       30.04R
HENDERSON NC   MOCLDY    71  63  74 N3        30.04R
GREENSBORO     PTCLDY    70  61  73 E5        30.05R
ROCKY MOUNT    PTCLDY    73  66  78 NE6       30.01R
$$

VAZ100-270300-
MARINE

STATION/POSITION TIME  TEMP    WIND        PRES    WAVE   SWELL
                       AIR SEA DIR/SP/G            HT/PER HT/PER
                 (UTC) (F)     (DEG/KT/KT) (MB)    (FT/S) (FT/S)
BRANDYWINE LGT   0100   75 74  300/ 12/ 13 1016.9R
CAPE MAY NJ      0100   75 79  300/ 10/ 13 1016.3R
LEWES DE         0100   74 78  260/  4/  5 1016.7R
15NM E FENWICK I 0150   77 79  330/  6/  8 1017.2R   2/ 8   2/ 8
OCEAN-CITY-INLET 0100   75 78  320/  5/  7 1016.0R
WACHAPREAGUE VA  0100   73 81  320/  2/  3 1016.7R
GOOSES REEF MD   0200   77 80  320/  6/  6 1018.4R
COVE POINT MD    0100   75     330/  3/  4 1017.6R
SOLOMONS ISLAND  0100      82                N/A
BISHOPS HEAD MD  0100   74 80  340/  5/  6 1015.9R
PINEY POINT MD   0100           20/  5/  5   N/A
POTOMAC MD       0200   76 80  360/  6/  8 1016.3R   0
CAMBRIDGE MD     0100   73 81   CALM  /  1 1016.2R
LEWISETTA VA     0100   76 81   10/  2/  4 1016.4R
RAPPAHANNOCK LGT 0100          360/  9/ 11 1017.0R
STINGRAY PT      0200   78 80   10/  8/ 10 1017.4R   1/ 2
YORK RVR RNG VA  0100   78      40/ 10/ 12 1015.8R
YORKTOWN VA      0100   77 81   40/  8/ 10 1016.0R
JAMESTOWN VA     0200   75 83   50/  4/  6   N/A
DOMINION TERM VA 0100   77      40/  4/  5 1016.0S
KIPTOPEKE VA     0100      81   40/  3/  4   N/A
CHES BAY BRIDGE  0100   77 80  360/ 12/ 14 1015.6R
CAPE HENRY VA    0100   77      10/ 14/ 16   N/A
CHESAPEAKE LGHT  0100   77      30/ 11/ 12 1016.6R
WILLOUBY STN VA  0100   77      40/ 11/ 13 1017.0S
CAPE HENRY BUOY  0128      80                N/A     3/10   2/11
1ST LANDING BUOY 0200      79              1016.3R   2/ 3
CAPE CHARLES BUO 0126      79                N/A     3/11   3/11
OFFSHORE WE BUOY 0111      79                N/A     3/11   3/11
64NM E OF VA BCH 0150   80 79   30/ 12/ 14 1015.3R   3/10   3/10
DUCK PIER NC     0100   79 80   30/ 14/ 16 1014.6R
44100 DUCK FRF   0124      80                N/A     3/11   2/11
44056 DUCK FRF   0111      80                N/A     4/11   2/11
OREGON INLET NC  0100   79 82   50/  8/ 12 1014.5R
HATTERAS NC      0100   80 83   80/  4/  5 1013.7R
DIAMOND SHLS NC  0150   82 86  150/  6/  8 1014.7    3/ 9   3/ 9


USA.gov is the U.S. government's official web portal to all federal, state and local government web resources and services.